User: anonymous   Login
Location: Mt. Cuba Astronomical Observatory
(39.8100°N, 75.6300°W)
Time: 13:00:58
(UTC-04:00)
Language:

Cosmos 2058 - Orbit

View from above orbital plane
View from above orbital plane
View from above satellite
View from above satellite

Ground track
Ground track

The orbit data is extracted from the following two-line orbital elements,

1 20465U 90010A   15245.18565512  .00000823  00000-0  69779-4 0  9992
2 20465  82.4927 156.3257 0015492 342.7384  17.3309 14.96637379387480
Epoch (UTC): 02 September 2015 04:27:20
Eccentricity: 0.0015492
inclination: 82.4927°
perigee height: 566 km
apogee height: 588 km
right ascension of ascending node: 156.3257°
argument of perigee: 342.7384°
revolutions per day: 14.96637379
mean anomaly at epoch: 17.3309°
orbit number at epoch: 38748

The dashed part of the orbit path shows where the satellite is in the earth's shadow,  

DLR